Marshall, MN

3:04 PM CST on February 13, 2016 (GMT -0600)
Marshall Municipal-Ryan

Weather History for KMML - January, 2014

Change the Weather History Date:

Friday, January 17, 2014

  Actual Average (WUND) Record (WUND)
Temperature  
Mean Temperature 12 °F -  
Max Temperature 26 °F - - (-1)
Min Temperature 1 °F - - (-1)
Degree Days  
Heating Degree Days 52    
Moisture  
Dew Point 0 °F    
Average Humidity 61    
Maximum Humidity 68    
Minimum Humidity 39    
Precipitation  
Precipitation 0.00 in - - ()
Sea Level Pressure  
Sea Level Pressure 29.96 in    
Wind  
Wind Speed 18 mph (WNW)    
Max Wind Speed 28 mph    
Max Gust Speed 34 mph    
Visibility 10 miles    
Events      
Averages and records for this station are not official NWS values.
T = Trace of Precipitation, MM = Missing Value Source: NWS Daily Summary

Daily Weather History Graph

Daily Weather History Graph

Search for Another Location

Airport or City:

Trip Planner

Search our weather history database for the weather conditions in past years. The results will help you decide how hot, cold, wet, or windy it might be!

Date:

Astronomy

Jan. 17, 2014 Rise Set
Actual Time 7:54 AM CST 5:12 PM CST
Civil Twilight 7:22 AM CST 5:44 PM CST
Nautical Twilight 6:46 AM CST 6:20 PM CST
Astronomical Twilight 6:12 AM CST 6:55 PM CST
Moon 7:05 PM CST (1/17) 8:18 AM CST (1/17)
Length of Visible Light 10h 21m
Length of Day
9h 17m
Full, 98% of the Moon is Illuminated
Jan 17
Full
Jan 23
Last Quarter
Jan 30
New
Feb 6
First Quarter
Feb 14
Full

Hourly Weather History & Observations

Time (CST) Temp. Windchill Dew Point Humidity Pressure Visibility Wind Dir Wind Speed Gust Speed Precip Events Conditions
12:15 AM 5.0 °F -18.3 °F -7.6 °F 56% 29.99 in 10.0 mi NNW 27.6 mph 33.4 mph N/A   Clear
12:35 AM 3.2 °F -18.6 °F -5.8 °F 66% 29.99 in 10.0 mi NNW 21.9 mph 33.4 mph N/A   Clear
12:55 AM 3.2 °F -20.7 °F -5.8 °F 66% 29.99 in 10.0 mi NNW 27.6 mph 34.5 mph N/A   Clear
1:15 AM 3.2 °F -18.1 °F -5.8 °F 66% 30.01 in 10.0 mi NNW 20.7 mph 25.3 mph N/A   Clear
1:35 AM 3.2 °F -18.1 °F -5.8 °F 66% 30.01 in 10.0 mi NNW 20.7 mph - N/A   Clear
1:55 AM 3.2 °F -19.0 °F -7.6 °F 61% 30.02 in 10.0 mi NNW 23.0 mph 33.4 mph N/A   Clear
2:15 AM 3.2 °F -19.9 °F -5.8 °F 66% 30.02 in 10.0 mi NNW 25.3 mph 31.1 mph N/A   Clear
2:35 AM 3.2 °F -19.0 °F -5.8 °F 66% 30.03 in 10.0 mi NNW 23.0 mph 31.1 mph N/A   Clear
2:55 AM 3.2 °F -18.6 °F -5.8 °F 66% 30.03 in 10.0 mi NNW 21.9 mph 28.8 mph N/A   Clear
3:15 AM 3.2 °F -18.6 °F -7.6 °F 61% 30.02 in 10.0 mi NNW 21.9 mph 28.8 mph N/A   Clear
3:35 AM 3.2 °F -19.0 °F -7.6 °F 61% 30.02 in 10.0 mi NNW 23.0 mph 31.1 mph N/A   Clear
3:55 AM 3.2 °F -18.6 °F -7.6 °F 61% 30.02 in 10.0 mi NNW 21.9 mph 27.6 mph N/A   Clear
4:15 AM 3.2 °F -19.0 °F -7.6 °F 61% 30.03 in 10.0 mi NNW 23.0 mph 29.9 mph N/A   Clear
4:35 AM 1.4 °F -19.9 °F -7.6 °F 66% 30.04 in 10.0 mi NNW 19.6 mph 26.5 mph N/A   Clear
4:55 AM 1.4 °F -18.8 °F -7.6 °F 66% 30.05 in 10.0 mi NNW 17.3 mph 24.2 mph N/A   Clear
5:15 AM 1.4 °F -18.8 °F -7.6 °F 66% 30.05 in 10.0 mi NNW 17.3 mph 24.2 mph N/A   Clear
5:35 AM 1.4 °F -20.5 °F -7.6 °F 66% 30.05 in 10.0 mi NW 20.7 mph 24.2 mph N/A   Clear
5:55 AM 1.4 °F -19.9 °F -7.6 °F 66% 30.05 in 10.0 mi NNW 19.6 mph - N/A   Clear
6:15 AM 1.4 °F -19.4 °F -7.6 °F 66% 30.05 in 10.0 mi NNW 18.4 mph - N/A   Clear
6:35 AM 1.4 °F -19.4 °F -7.6 °F 66% 30.05 in 10.0 mi NNW 18.4 mph 24.2 mph N/A   Clear
6:55 AM 1.4 °F -20.5 °F -9.4 °F 61% 30.05 in 10.0 mi NW 20.7 mph 27.6 mph N/A   Clear
7:15 AM 1.4 °F -20.5 °F -7.6 °F 66% 30.06 in 10.0 mi NW 20.7 mph 26.5 mph N/A   Clear
7:35 AM 1.4 °F -19.4 °F -7.6 °F 66% 30.06 in 10.0 mi NW 18.4 mph 24.2 mph N/A   Clear
7:55 AM 1.4 °F -18.2 °F -7.6 °F 66% 30.06 in 10.0 mi NW 16.1 mph 21.9 mph N/A   Clear
8:15 AM 1.4 °F -17.6 °F -7.6 °F 66% 30.07 in 10.0 mi NW 15.0 mph - N/A   Clear
8:35 AM 1.4 °F -17.6 °F -7.6 °F 66% 30.07 in 10.0 mi NW 15.0 mph - N/A   Clear
8:55 AM 1.4 °F -17.6 °F -7.6 °F 66% 30.07 in 10.0 mi NNW 15.0 mph - N/A   Clear
9:15 AM 3.2 °F -15.3 °F -7.6 °F 61% 30.07 in 10.0 mi NW 15.0 mph - N/A   Clear
9:35 AM 3.2 °F -14.6 °F -5.8 °F 66% 30.08 in 10.0 mi NW 13.8 mph - N/A   Clear
9:55 AM 5.0 °F -13.0 °F -5.8 °F 61% 30.08 in 10.0 mi NW 15.0 mph - N/A   Clear
10:15 AM 6.8 °F -7.8 °F -4.0 °F 61% 30.08 in 10.0 mi NNW 10.4 mph - N/A   Clear
10:35 AM 6.8 °F -9.3 °F -2.2 °F 67% 30.08 in 10.0 mi NW 12.7 mph - N/A   Clear
10:55 AM 8.6 °F -7.0 °F -2.2 °F 62% 30.08 in 10.0 mi NW 12.7 mph - N/A   Clear
11:15 AM 8.6 °F -7.0 °F -2.2 °F 62% 30.08 in 10.0 mi NW 12.7 mph - N/A   Clear
11:35 AM 10.4 °F -4.1 °F -0.4 °F 62% 30.08 in 10.0 mi NW 11.5 mph - N/A   Clear
11:55 AM 10.4 °F -1.5 °F -2.2 °F 57% 30.07 in 10.0 mi NW 8.1 mph - N/A   Clear
12:15 PM 12.2 °F 1.7 °F -0.4 °F 57% 30.05 in 10.0 mi NNW 6.9 mph - N/A   Clear
12:35 PM 12.2 °F 0.7 °F -0.4 °F 57% 30.04 in 10.0 mi NNW 8.1 mph - N/A   Clear
12:55 PM 12.2 °F -0.2 °F -0.4 °F 57% 30.03 in 10.0 mi NW 9.2 mph - N/A   Clear
1:15 PM 14.0 °F 3.9 °F -0.4 °F 53% 30.01 in 10.0 mi NW 6.9 mph - N/A   Clear
1:35 PM 15.8 °F 5.1 °F 1.4 °F 53% 29.99 in 10.0 mi NNW 8.1 mph - N/A   Clear
1:55 PM 15.8 °F 7.2 °F 1.4 °F 53% 29.99 in 10.0 mi NNW 5.8 mph - N/A   Clear
2:15 PM 17.6 °F 8.2 °F 3.2 °F 53% 29.99 in 10.0 mi WNW 6.9 mph - N/A   Clear
2:35 PM 19.4 °F 11.5 °F 1.4 °F 46% 29.98 in 10.0 mi West 5.8 mph - N/A   Clear
2:55 PM 19.4 °F 10.4 °F -2.2 °F 39% 29.98 in 10.0 mi WNW 6.9 mph - N/A   Clear
3:15 PM 19.4 °F 10.4 °F -2.2 °F 39% 29.97 in 10.0 mi West 6.9 mph - N/A   Clear
3:35 PM 19.4 °F 8.6 °F -0.4 °F 42% 29.97 in 10.0 mi WSW 9.2 mph - N/A   Clear
3:55 PM 19.4 °F 7.9 °F 3.2 °F 49% 29.96 in 10.0 mi WSW 10.4 mph - N/A   Clear
4:15 PM 17.6 °F 8.2 °F 3.2 °F 53% 29.95 in 10.0 mi WSW 6.9 mph - N/A   Clear
4:35 PM 17.6 °F 8.2 °F 1.4 °F 49% 29.95 in 10.0 mi WSW 6.9 mph - N/A   Clear
4:55 PM 17.6 °F 8.2 °F 3.2 °F 53% 29.95 in 10.0 mi WSW 6.9 mph - N/A   Clear
5:15 PM 17.6 °F 8.2 °F 3.2 °F 53% 29.95 in 10.0 mi SW 6.9 mph - N/A   Clear
5:35 PM 17.6 °F 9.3 °F 3.2 °F 53% 29.94 in 10.0 mi SW 5.8 mph - N/A   Partly Cloudy
5:55 PM 15.8 °F 6.1 °F 5.0 °F 62% 29.93 in 10.0 mi SSW 6.9 mph - N/A   Partly Cloudy
6:15 PM 15.8 °F 5.1 °F 6.8 °F 68% 29.92 in 10.0 mi SSW 8.1 mph - N/A   Clear
6:35 PM 17.6 °F 7.3 °F 6.8 °F 63% 29.90 in 10.0 mi SW 8.1 mph - N/A   Clear
6:55 PM 17.6 °F 5.7 °F 6.8 °F 63% 29.88 in 10.0 mi WSW 10.4 mph - N/A   Clear
7:15 PM 19.4 °F 5.5 °F 6.8 °F 58% 29.87 in 10.0 mi WSW 15.0 mph - N/A   Clear
7:35 PM 19.4 °F 7.2 °F 10.4 °F 68% 29.85 in 10.0 mi SSW 11.5 mph - N/A   Clear
7:55 PM 19.4 °F 8.6 °F 10.4 °F 68% 29.84 in 10.0 mi SSW 9.2 mph - N/A   Clear
8:15 PM 21.2 °F 7.8 °F 10.4 °F 63% 29.82 in 10.0 mi SW 15.0 mph 20.7 mph N/A   Clear
8:35 PM 23.0 °F 11.7 °F 14.0 °F 68% 29.79 in 10.0 mi SW 11.5 mph - N/A   Clear
8:55 PM 23.0 °F 9.2 °F 14.0 °F 68% 29.77 in 10.0 mi SSW 17.3 mph - N/A   Clear
9:15 PM 23.0 °F 9.6 °F 12.2 °F 63% 29.75 in 10.0 mi SSW 16.1 mph 21.9 mph N/A   Partly Cloudy
9:35 PM 23.0 °F 8.7 °F 12.2 °F 63% 29.72 in 10.0 mi SSW 18.4 mph - N/A   Mostly Cloudy
9:55 PM 23.0 °F 9.6 °F 14.0 °F 68% 29.71 in 10.0 mi SSW 16.1 mph - N/A   Overcast
10:15 PM 24.8 °F 11.1 °F 14.0 °F 64% 29.69 in 10.0 mi SSW 18.4 mph - N/A   Overcast
10:35 PM 24.8 °F 12.4 °F 12.2 °F 59% 29.68 in 10.0 mi SSW 15.0 mph 19.6 mph N/A   Overcast
10:55 PM 24.8 °F 10.7 °F 12.2 °F 59% 29.66 in 10.0 mi SSW 19.6 mph - N/A   Overcast
11:15 PM 24.8 °F 11.1 °F 12.2 °F 59% 29.64 in 10.0 mi South 18.4 mph - N/A   Overcast
11:35 PM 24.8 °F 10.7 °F 12.2 °F 59% 29.61 in 10.0 mi South 19.6 mph 24.2 mph N/A   Overcast
11:55 PM 26.6 °F 12.7 °F 12.2 °F 55% 29.57 in 10.0 mi South 20.7 mph 26.5 mph N/A   Overcast